Hourly Data Report for June 07, 2018

LONDON CS
ONTARIO
Current Station Operator: ECCC - MSC

43°02'00.000" N
81°09'00.000" W
278.00 m
6144478
71622
WSN

Download Data

Hourly Data (June 2018)
Hourly Data Report for June 7, 2018
TIME Temp Definition
°C
Dew Point Definition
°C
Rel Hum Definition
%
Wind Dir Definition
10's deg

Wind Spd Definition
km/h
Visibility Definition
km
Stn Press Definition
kPa
Hmdx Definition


Wind Chill Definition


Weather Definition


00:00 11.8 8.5 80 LegendMM LegendMM   98.28     LegendNANA
01:00 11.3 8.5 83 LegendMM LegendMM   98.27     LegendNANA
02:00 11.0 8.7 85 LegendMM LegendMM   98.28     LegendNANA
03:00 11.7 9.4 86 LegendMM LegendMM   98.28     LegendNANA
04:00 11.4 9.3 87 LegendMM LegendMM   98.27     LegendNANA
05:00 11.2 9.8 91 LegendMM LegendMM   98.28     LegendNANA
06:00 12.8 11.2 90 LegendMM LegendMM   98.36     LegendNANA
07:00 14.6 12.1 85 LegendMM LegendMM   98.40     LegendNANA
08:00 16.9 12.5 75 LegendMM LegendMM   98.42     LegendNANA
09:00 17.4 12.4 73 LegendMM LegendMM   98.44     LegendNANA
10:00 18.9 13.8 72 LegendMM LegendMM   98.42     LegendNANA
11:00 19.4 12.4 64 LegendMM LegendMM   98.43     LegendNANA
12:00 19.7 12.7 64 LegendMM LegendMM   98.44     LegendNANA
13:00 20.5 12.7 61 LegendMM LegendMM   98.42     LegendNANA
14:00 21.7 13.7 61 LegendMM LegendMM   98.44 25   LegendNANA
15:00 22.5 13.6 57 LegendMM LegendMM   98.39 26   LegendNANA
16:00 22.9 13.7 56 LegendMM LegendMM   98.40 26   LegendNANA
17:00 22.5 13.0 55 LegendMM LegendMM   98.44 25   LegendNANA
18:00 22.5 13.6 57 LegendMM LegendMM   98.47 26   LegendNANA
19:00 21.2 13.0 59 LegendMM LegendMM   98.51     LegendNANA
20:00 19.6 12.7 64 LegendMM LegendMM   98.55     LegendNANA
21:00 19.2 13.2 68 LegendMM LegendMM   98.61     LegendNANA
22:00 17.7 12.6 72 LegendMM LegendMM   98.65     LegendNANA
23:00 14.5 12.1 86 LegendMM LegendMM   98.70     LegendNANA

Notes on Data Quality.

Legend

  • E = Estimated
  • M = Missing
  • NA = Not Available*
  • [empty] = Indicates an unobserved value
Date modified: